Total_Precipitation_Accumulation
0.06 0.09 0.12 0.15 0.16 0.17 0.19 0.23 0.29 0.32 0.33 0.41 0.52 0.59 0.68 0.85 1.06 1.11 1.17 1.27 1.26 1.23 1.29 1.31 1.22 1.08 0.91 0.82 0.76 0.75 0.55 0.34 0.17 0.12 0.08 0.04 0.01 0.00 0.00 0.00 0.00 0.00 0.01
0.04 0.05 0.07 0.09 0.10 0.10 0.12 0.17 0.25 0.35 0.40 0.46 0.60 0.75 0.96 1.08 1.21 1.36 1.34 1.35 1.38 1.37 1.39 1.51 1.56 1.41 1.27 1.24 1.09 1.06 0.99 0.72 0.43 0.39 0.43 0.30 0.21 0.08 0.02 0.01 0.01 0.00 0.01
0.04 0.04 0.04 0.06 0.09 0.08 0.10 0.16 0.30 0.49 0.69 0.80 1.03 1.31 1.56 1.62 1.54 1.53 1.56 1.54 1.56 1.56 1.49 1.55 1.66 1.57 1.45 1.38 1.40 1.42 1.45 1.21 0.90 0.67 0.66 0.54 0.46 0.41 0.12 0.03 0.03 0.02 0.01
0.09 0.07 0.08 0.08 0.09 0.11 0.20 0.36 0.60 0.90 1.15 1.30 1.49 1.70 1.81 1.84 1.76 1.76 1.74 1.71 1.62 1.51 1.45 1.53 1.67 1.70 1.71 1.68 1.67 1.52 1.55 1.53 1.25 1.09 0.82 0.63 0.55 0.57 0.46 0.20 0.07 0.05 0.03
0.18 0.19 0.21 0.22 0.28 0.38 0.57 0.86 1.11 1.36 1.51 1.56 1.66 1.85 1.99 2.13 2.14 2.01 1.86 1.74 1.68 1.59 1.47 1.47 1.52 1.52 1.53 1.58 1.62 1.52 1.53 1.50 1.49 1.41 1.23 1.00 0.84 0.55 0.50 0.50 0.30 0.13 0.05
0.29 0.35 0.44 0.54 0.69 0.81 0.99 1.20 1.34 1.49 1.50 1.50 1.55 1.66 1.82 1.98 2.00 2.01 1.97 1.83 1.67 1.54 1.43 1.36 1.40 1.43 1.38 1.43 1.47 1.44 1.50 1.46 1.43 1.39 1.25 1.15 1.08 0.96 0.76 0.62 0.51 0.38 0.19
0.41 0.57 0.72 0.85 0.98 1.09 1.19 1.22 1.21 1.26 1.29 1.31 1.33 1.38 1.42 1.44 1.47 1.55 1.46 1.33 1.23 1.17 1.15 1.07 1.08 1.14 1.17 1.29 1.26 1.14 1.11 1.17 1.21 1.22 1.19 1.17 1.12 1.09 0.98 0.88 0.74 0.55 0.30
0.68 0.77 0.88 0.97 1.01 1.14 1.20 1.15 1.12 1.11 1.04 0.99 1.03 1.03 1.05 1.07 1.05 1.00 0.94 0.86 0.83 0.79 0.76 0.76 0.74 0.76 0.79 0.93 1.06 0.98 0.93 0.90 0.92 0.93 0.96 0.98 1.04 1.09 0.94 0.86 0.84 0.72 0.55
0.94 1.08 1.08 0.99 0.90 0.94 1.02 1.00 0.95 0.91 0.83 0.77 0.81 0.83 0.85 0.84 0.78 0.72 0.65 0.61 0.56 0.54 0.52 0.52 0.55 0.56 0.57 0.64 0.70 0.81 0.80 0.72 0.71 0.73 0.78 0.75 0.75 0.79 0.78 0.81 0.78 0.68 0.57
1.00 1.24 1.38 1.27 1.00 0.80 0.81 0.78 0.76 0.79 0.78 0.74 0.75 0.75 0.65 0.59 0.59 0.59 0.52 0.49 0.51 0.50 0.48 0.43 0.38 0.39 0.40 0.49 0.56 0.56 0.58 0.56 0.59 0.62 0.67 0.69 0.69 0.67 0.63 0.69 0.78 0.72 0.56
1.17 1.31 1.36 1.23 1.05 0.78 0.69 0.68 0.66 0.70 0.76 0.69 0.71 0.70 0.60 0.47 0.43 0.41 0.38 0.36 0.35 0.39 0.38 0.35 0.35 0.32 0.31 0.33 0.33 0.34 0.36 0.36 0.37 0.35 0.37 0.45 0.54 0.59 0.60 0.61 0.68 0.74 0.66
0.83 0.85 0.96 0.97 0.91 0.78 0.70 0.75 0.80 0.79 0.71 0.65 0.61 0.58 0.51 0.43 0.42 0.39 0.34 0.33 0.32 0.33 0.34 0.34 0.35 0.35 0.37 0.36 0.34 0.31 0.28 0.30 0.30 0.26 0.23 0.25 0.32 0.39 0.47 0.54 0.58 0.63 0.69
0.60 0.53 0.64 0.78 0.73 0.66 0.70 0.77 0.91 0.91 0.82 0.70 0.60 0.56 0.52 0.48 0.46 0.42 0.39 0.37 0.40 0.43 0.42 0.45 0.50 0.49 0.49 0.47 0.45 0.42 0.38 0.34 0.31 0.28 0.27 0.27 0.28 0.31 0.37 0.48 0.58 0.61 0.64
0.47 0.41 0.40 0.42 0.41 0.44 0.47 0.59 0.84 1.03 1.01 0.90 0.77 0.68 0.60 0.53 0.48 0.43 0.43 0.41 0.44 0.48 0.46 0.52 0.59 0.66 0.71 0.70 0.64 0.59 0.52 0.45 0.40 0.36 0.32 0.27 0.26 0.32 0.44 0.55 0.63 0.64 0.63
0.28 0.24 0.20 0.20 0.22 0.27 0.34 0.45 0.72 0.91 0.93 0.92 0.80 0.66 0.55 0.45 0.43 0.46 0.49 0.46 0.41 0.43 0.43 0.49 0.56 0.63 0.72 0.76 0.73 0.59 0.49 0.47 0.45 0.39 0.34 0.31 0.31 0.29 0.37 0.48 0.67 0.68 0.71
0.18 0.18 0.16 0.14 0.11 0.11 0.16 0.27 0.46 0.62 0.68 0.74 0.70 0.54 0.48 0.43 0.39 0.42 0.48 0.49 0.39 0.37 0.38 0.42 0.37 0.38 0.43 0.57 0.52 0.40 0.34 0.37 0.42 0.42 0.38 0.36 0.32 0.28 0.26 0.26 0.40 0.54 0.64
0.22 0.22 0.22 0.19 0.17 0.14 0.14 0.17 0.24 0.33 0.40 0.44 0.45 0.36 0.34 0.41 0.42 0.45 0.44 0.38 0.31 0.33 0.35 0.30 0.24 0.22 0.26 0.29 0.25 0.28 0.34 0.34 0.34 0.39 0.46 0.48 0.41 0.40 0.40 0.31 0.29 0.31 0.35
0.28 0.24 0.20 0.18 0.15 0.12 0.12 0.13 0.15 0.18 0.20 0.20 0.17 0.14 0.21 0.30 0.31 0.30 0.27 0.23 0.22 0.28 0.35 0.29 0.25 0.26 0.22 0.24 0.26 0.26 0.30 0.39 0.40 0.40 0.41 0.50 0.52 0.51 0.55 0.48 0.49 0.40 0.32
0.12 0.08 0.05 0.04 0.03 0.03 0.03 0.03 0.02 0.02 0.02 0.02 0.02 0.04 0.05 0.06 0.06 0.06 0.07 0.11 0.15 0.19 0.17 0.21 0.34 0.33 0.28 0.33 0.31 0.24 0.28 0.36 0.41 0.39 0.42 0.50 0.56 0.68 0.68 0.65 0.62 0.49 0.38
0.01 0.00 0.00 0.00 0.00 0.00 0.00 0.00 0.00 0.00 0.00 0.00 0.00 0.00 0.01 0.01 0.01 0.01 0.01 0.03 0.06 0.09 0.09 0.12 0.22 0.28 0.29 0.28 0.18 0.19 0.28 0.34 0.41 0.44 0.44 0.60 0.59 0.64 0.61 0.58 0.63 0.60 0.45
0.00 0.00 0.00 0.00 0.00 0.00 0.00 0.00 0.00 0.00 0.00 0.00 0.00 0.00 0.00 0.01 0.01 0.02 0.01 0.00 0.01 0.02 0.04 0.07 0.08 0.09 0.10 0.10 0.10 0.15 0.20 0.23 0.33 0.40 0.41 0.36 0.44 0.43 0.45 0.48 0.49 0.60 0.46
0.00 0.00 0.00 0.00 0.00 0.00 0.00 0.00 0.00 0.00 0.00 0.00 0.00 0.00 0.01 0.01 0.01 0.02 0.01 0.00 0.00 0.01 0.02 0.02 0.03 0.03 0.03 0.02 0.03 0.04 0.07 0.11 0.17 0.24 0.28 0.25 0.29 0.32 0.37 0.35 0.41 0.49 0.43
0.00 0.00 0.00 0.00 0.00 0.00 0.00 0.00 0.00 0.00 0.00 0.00 0.01 0.00 0.00 0.01 0.00 0.01 0.01 0.01 0.01 0.01 0.01 0.02 0.02 0.04 0.06 0.04 0.03 0.03 0.04 0.06 0.09 0.13 0.19 0.21 0.26 0.24 0.24 0.29 0.37 0.37 0.41
0.00 0.00 0.00 0.00 0.00 0.00 0.00 0.00 0.00 0.00 0.00 0.00 0.00 0.00 0.00 0.01 0.00 0.01 0.00 0.01 0.01 0.01 0.01 0.02 0.04 0.07 0.09 0.05 0.04 0.05 0.08 0.09 0.09 0.11 0.17 0.22 0.28 0.25 0.24 0.26 0.30 0.34 0.40
0.00 0.00 0.00 0.00 0.00 0.00 0.00 0.00 0.00 0.00 0.00 0.00 0.00 0.00 0.00 0.01 0.01 0.01 0.00 0.00 0.00 0.01 0.01 0.01 0.02 0.03 0.03 0.03 0.03 0.06 0.09 0.09 0.09 0.17 0.30 0.39 0.38 0.35 0.31 0.29 0.34 0.35 0.33
0.00 0.00 0.00 0.00 0.00 0.00 0.00 0.00 0.00 0.00 0.00 0.00 0.00 0.00 0.00 0.01 0.01 0.01 0.01 0.00 0.01 0.01 0.01 0.01 0.01 0.01 0.02 0.03 0.06 0.09 0.13 0.14 0.20 0.33 0.49 0.56 0.60 0.58 0.50 0.45 0.43 0.41 0.37